Simultaneous Nadir Overpasses (SNOs) Predictions

Prediction of SNOs between AQUA and METOP-C Satellite Orbit:

Table of predicted SNOs for the next 14.0 days since TLE Epoch: 1/28/2024
Index Date (AQUA) Time (AQUA) Lat,Lon (AQUA) SZA (AQUA ) Date (METOP-C) Time (METOP-C) Lat,Lon (METOP-C) SZA (METOP-C ) Distance(km) Time Diff (sec)
1 01/28/2024 07:32:37 75.05, 64.14 93.34 01/28/2024 07:31:56 75.05, 64.18 93.35 1.36 41
2 01/28/2024 08:22:00 -75.10,-128.34 86.62 01/28/2024 08:22:36 -75.11,-128.32 86.61 1.54 36
3 01/30/2024 23:44:36 75.03,-178.76 92.60 01/30/2024 23:43:34 75.02,-178.81 92.61 1.46 62
4 01/31/2024 00:33:59 -75.08, -11.24 87.36 01/31/2024 00:34:14 -75.09, -11.28 87.34 2.08 15
5 01/31/2024 01:23:36 75.72, 154.60 93.33 01/31/2024 01:24:40 75.76, 158.09 93.28 95.76 64
6 02/02/2024 15:56:28 74.72, -60.92 91.53 02/02/2024 15:55:19 74.64, -62.76 91.51 55.01 69
7 02/02/2024 16:45:57 -75.07, 105.82 88.11 02/02/2024 16:45:52 -75.06, 105.72 88.13 3.34 5
8 02/02/2024 17:35:22 75.12, -86.66 91.93 02/02/2024 17:36:30 75.15, -86.68 91.95 3.33 68
9 02/05/2024 08:57:53 -75.09,-137.17 88.89 02/05/2024 08:57:28 -75.07,-137.17 88.91 3.07 25
10 02/05/2024 09:47:18 75.14, 30.34 91.16 02/05/2024 09:48:06 75.15, 30.41 91.16 1.89 48
11 02/08/2024 01:09:48 -75.08, -20.08 89.72 02/08/2024 01:09:05 -75.06, -20.09 89.74 2.45 43
12 02/08/2024 01:59:13 75.14, 147.42 90.33 02/08/2024 01:59:43 75.13, 147.46 90.33 1.21 30
13 02/10/2024 17:21:41 -75.04, 97.10 90.62 02/10/2024 17:20:42 -75.04, 96.96 90.61 3.87 59
14 02/10/2024 18:11:06 75.10, -95.41 89.44 02/10/2024 18:11:20 75.11, -95.51 89.45 3.00 14



Historial Predications of SNOs between AQUA and METOP-C
